| time (UTC) | temp F | wind direction | speed MPH | gust MPH | rain 1hr in | rain 24hr in | rain mn in | humidity % | barometer mb |
| 20260507172100 | 68 | 238 | 1.0 | 5.0 | 0.00 | 0.00 | 0.00 | 46 | 1016.5 |
| 20260507171528 | 68 | 238 | 4.0 | 5.0 | 0.00 | 0.00 | 0.00 | 46 | 1016.6 |
| 20260507171042 | 69 | 241 | 3.0 | 5.0 | 0.00 | 0.00 | 0.00 | 47 | 1016.6 |
| 20260507170528 | 69 | 235 | 3.0 | 5.0 | 0.00 | 0.00 | 0.00 | 48 | 1016.7 |
| 20260507170045 | 69 | 250 | 3.0 | 5.0 | 0.00 | 0.00 | 0.00 | 46 | 1016.5 |
| 20260507165542 | 69 | 271 | 2.0 | 3.0 | 0.00 | 0.00 | 0.00 | 46 | 1016.4 |
| 20260507165042 | 69 | 355 | 2.0 | 3.0 | 0.00 | 0.00 | 0.00 | 46 | 1016.4 |
| 20260507164557 | 69 | 355 | 1.0 | 2.0 | 0.00 | 0.00 | 0.00 | 45 | 1016.4 |
| 20260507164059 | 69 | 355 | 0.0 | 3.0 | 0.00 | 0.00 | 0.00 | 45 | 1016.2 |
| 20260507163529 | 69 | 355 | 1.0 | 4.0 | 0.00 | 0.00 | 0.00 | 48 | 1016.2 |
| 20260507163055 | 69 | 355 | 2.0 | 4.0 | 0.00 | 0.00 | 0.00 | 50 | 1016.4 |
| 20260507162530 | 69 | 336 | 2.0 | 4.0 | 0.00 | 0.00 | 0.00 | 50 | 1016.3 |
| 20260507162044 | 69 | 296 | 1.0 | 5.0 | 0.00 | 0.00 | 0.00 | 51 | 1016.3 |
| 20260507161602 | 69 | 272 | 4.0 | 5.0 | 0.00 | 0.00 | 0.00 | 50 | 1016.2 |
| 20260507161030 | 69 | 284 | 3.0 | 8.0 | 0.00 | 0.00 | 0.00 | 50 | 1016.3 |
| 20260507160540 | 69 | 273 | 5.0 | 9.0 | 0.00 | 0.00 | 0.00 | 50 | 1016.4 |
| 20260507160034 | 69 | 241 | 6.0 | 10.0 | 0.00 | 0.00 | 0.00 | 49 | 1016.2 |
| 20260507155549 | 71 | 257 | 6.0 | 11.0 | 0.00 | 0.00 | 0.00 | 47 | 1016.3 |
| 20260507155041 | 72 | 257 | 5.0 | 8.0 | 0.00 | 0.00 | 0.00 | 39 | 1016.1 |
| 20260507154556 | 73 | 263 | 2.0 | 5.0 | 0.00 | 0.00 | 0.00 | 31 | 1016.0 |
| 20260507154027 | 73 | 68 | 2.0 | 3.0 | 0.00 | 0.00 | 0.00 | 32 | 1016.1 |
| 20260507153536 | 72 | 13 | 1.0 | 4.0 | 0.00 | 0.00 | 0.00 | 34 | 1016.1 |
| 20260507153028 | 72 | 349 | 2.0 | 4.0 | 0.00 | 0.00 | 0.00 | 35 | 1016.1 |
| 20260507152540 | 72 | 329 | 2.0 | 5.0 | 0.00 | 0.00 | 0.00 | 35 | 1016.1 |
| 20260507152107 | 72 | 349 | 2.0 | 5.0 | 0.00 | 0.00 | 0.00 | 35 | 1016.0 |
| 20260507151540 | 72 | 14 | 3.0 | 7.0 | 0.00 | 0.00 | 0.00 | 35 | 1016.0 |
| 20260507151106 | 72 | 63 | 3.0 | 7.0 | 0.00 | 0.00 | 0.00 | 37 | 1016.1 |
| 20260507150526 | 72 | 5 | 3.0 | 7.0 | 0.00 | 0.00 | 0.00 | 38 | 1016.1 |
| 20260507150039 | 72 | 46 | 3.0 | 7.0 | 0.00 | 0.00 | 0.00 | 39 | 1016.3 |
| 20260507145527 | 72 | 35 | 3.0 | 7.0 | 0.00 | 0.00 | 0.00 | 39 | 1016.5 |
| 20260507145046 | 72 | 28 | 4.0 | 6.0 | 0.00 | 0.00 | 0.00 | 40 | 1016.6 |
| 20260507144536 | 72 | 143 | 1.0 | 5.0 | 0.00 | 0.00 | 0.00 | 41 | 1016.7 |
| 20260507144042 | 72 | 123 | 3.0 | 5.0 | 0.00 | 0.00 | 0.00 | 39 | 1016.8 |
| 20260507143602 | 72 | 119 | 3.0 | 5.0 | 0.00 | 0.00 | 0.00 | 37 | 1016.8 |
| 20260507143027 | 72 | 159 | 2.0 | 6.0 | 0.00 | 0.00 | 0.00 | 37 | 1017.0 |
| 20260507142535 | 71 | 200 | 1.0 | 8.0 | 0.00 | 0.00 | 0.00 | 40 | 1017.1 |
| 20260507142029 | 71 | 194 | 5.0 | 8.0 | 0.00 | 0.00 | 0.00 | 42 | 1017.1 |
| 20260507141540 | 71 | 187 | 6.0 | 9.0 | 0.00 | 0.00 | 0.00 | 42 | 1017.1 |
| 20260507141046 | 70 | 196 | 5.0 | 9.0 | 0.00 | 0.00 | 0.00 | 43 | 1017.1 |
| 20260507140542 | 70 | 223 | 6.0 | 11.0 | 0.00 | 0.00 | 0.00 | 44 | 1017.0 |
| 20260507135533 | 70 | 211 | 6.0 | 11.0 | 0.00 | 0.00 | 0.00 | 45 | 1016.8 |
| 20260507135040 | 70 | 228 | 4.0 | 10.0 | 0.00 | 0.00 | 0.00 | 44 | 1016.7 |
| 20260507134530 | 70 | 192 | 7.0 | 10.0 | 0.00 | 0.00 | 0.00 | 43 | 1016.7 |
| 20260507134045 | 71 | 185 | 8.0 | 9.0 | 0.00 | 0.00 | 0.00 | 45 | 1016.5 |
| 20260507133532 | 71 | 224 | 4.0 | 9.0 | 0.00 | 0.00 | 0.00 | 46 | 1016.6 |
| 20260507133039 | 71 | 197 | 5.0 | 9.0 | 0.00 | 0.00 | 0.00 | 46 | 1016.4 |
| 20260507132528 | 71 | 215 | 5.0 | 10.0 | 0.00 | 0.00 | 0.00 | 47 | 1016.4 |
| 20260507132039 | 71 | 208 | 8.0 | 11.0 | 0.00 | 0.00 | 0.00 | 46 | 1016.5 |
| 20260507131529 | 71 | 263 | 5.0 | 13.0 | 0.00 | 0.00 | 0.00 | 48 | 1016.5 |
| 20260507131045 | 71 | 194 | 4.0 | 13.0 | 0.00 | 0.00 | 0.00 | 47 | 1016.5 |
| 20260507130532 | 71 | 155 | 8.0 | 13.0 | 0.00 | 0.00 | 0.00 | 44 | 1016.6 |
| 20260507130026 | 71 | 219 | 5.0 | 12.0 | 0.00 | 0.00 | 0.00 | 42 | 1016.6 |
| 20260507125539 | 72 | 183 | 6.0 | 12.0 | 0.00 | 0.00 | 0.00 | 39 | 1016.7 |
| 20260507125027 | 72 | 167 | 5.0 | 11.0 | 0.00 | 0.00 | 0.00 | 38 | 1016.9 |
| 20260507124539 | 71 | 156 | 7.0 | 11.0 | 0.00 | 0.00 | 0.00 | 40 | 1017.0 |
| 20260507124036 | 72 | 222 | 6.0 | 10.0 | 0.00 | 0.00 | 0.00 | 41 | 1017.0 |
| 20260507123552 | 73 | 158 | 4.0 | 10.0 | 0.00 | 0.00 | 0.00 | 39 | 1017.0 |
| 20260507123041 | 72 | 257 | 5.0 | 9.0 | 0.00 | 0.00 | 0.00 | 45 | 1016.9 |
| 20260507122555 | 72 | 193 | 6.0 | 10.0 | 0.00 | 0.00 | 0.00 | 44 | 1017.0 |
| 20260507122040 | 72 | 167 | 5.0 | 10.0 | 0.00 | 0.00 | 0.00 | 41 | 1017.1 |
| 20260507121533 | 73 | 167 | 3.0 | 9.0 | 0.00 | 0.00 | 0.00 | 44 | 1017.2 |
| 20260507121027 | 73 | 165 | 3.0 | 9.0 | 0.00 | 0.00 | 0.00 | 41 | 1017.3 |
| 20260507120541 | 72 | 192 | 5.0 | 8.0 | 0.00 | 0.00 | 0.00 | 43 | 1017.4 |
| 20260507120035 | 73 | 180 | 5.0 | 8.0 | 0.00 | 0.00 | 0.00 | 39 | 1017.3 |
| 20260507115538 | 74 | 210 | 3.0 | 6.0 | 0.00 | 0.00 | 0.00 | 37 | 1017.3 |
| 20260507115054 | 74 | 206 | 3.0 | 8.0 | 0.00 | 0.00 | 0.00 | 39 | 1017.3 |
| 20260507114542 | 74 | 215 | 4.0 | 8.0 | 0.00 | 0.00 | 0.00 | 38 | 1017.3 |
| 20260507114107 | 73 | 173 | 3.0 | 7.0 | 0.00 | 0.00 | 0.00 | 38 | 1017.3 |
| 20260507113537 | 74 | 147 | 2.0 | 5.0 | 0.00 | 0.00 | 0.00 | 41 | 1017.1 |
| 20260507113045 | 73 | 126 | 2.0 | 6.0 | 0.00 | 0.00 | 0.00 | 43 | 1017.1 |
| 20260507112531 | 72 | 175 | 3.0 | 8.0 | 0.00 | 0.00 | 0.00 | 42 | 1017.1 |
| 20260507112028 | 72 | 121 | 2.0 | 8.0 | 0.00 | 0.00 | 0.00 | 45 | 1017.1 |
| 20260507111541 | 73 | 136 | 2.0 | 8.0 | 0.00 | 0.00 | 0.00 | 46 | 1017.2 |
| 20260507111030 | 72 | 160 | 3.0 | 8.0 | 0.00 | 0.00 | 0.00 | 45 | 1017.3 |
| 20260507110539 | 71 | 90 | 3.0 | 7.0 | 0.00 | 0.00 | 0.00 | 46 | 1017.5 |
| 20260507110040 | 71 | 190 | 3.0 | 6.0 | 0.00 | 0.00 | 0.00 | 46 | 1017.6 |
| 20260507105629 | 72 | 138 | 1.0 | 7.0 | 0.00 | 0.00 | 0.00 | 47 | 1017.6 |
| 20260507105034 | 72 | 265 | 4.0 | 7.0 | 0.00 | 0.00 | 0.00 | 43 | 1017.5 |
| 20260507104547 | 72 | 168 | 3.0 | 5.0 | 0.00 | 0.00 | 0.00 | 43 | 1017.3 |
| 20260507104052 | 73 | 142 | 3.0 | 5.0 | 0.00 | 0.00 | 0.00 | 45 | 1017.3 |
| 20260507103545 | 72 | 111 | 2.0 | 5.0 | 0.00 | 0.00 | 0.00 | 47 | 1017.2 |
| 20260507103034 | 71 | 169 | 3.0 | 6.0 | 0.00 | 0.00 | 0.00 | 48 | 1017.3 |
| 20260507102547 | 70 | 163 | 2.0 | 5.0 | 0.00 | 0.00 | 0.00 | 50 | 1017.5 |
| 20260507102036 | 70 | 194 | 3.0 | 6.0 | 0.00 | 0.00 | 0.00 | 48 | 1017.4 |
| 20260507101550 | 71 | 225 | 3.0 | 8.0 | 0.00 | 0.00 | 0.00 | 46 | 1017.5 |
| 20260507101054 | 71 | 187 | 7.0 | 8.0 | 0.00 | 0.00 | 0.00 | 48 | 1017.5 |
| 20260507100547 | 71 | 166 | 4.0 | 7.0 | 0.00 | 0.00 | 0.00 | 51 | 1017.3 |
| 20260507100033 | 70 | 126 | 4.0 | 7.0 | 0.00 | 0.00 | 0.00 | 52 | 1017.3 |
| 20260507095539 | 71 | 218 | 2.0 | 6.0 | 0.00 | 0.00 | 0.00 | 49 | 1017.3 |
| 20260507095050 | 71 | 182 | 4.0 | 8.0 | 0.00 | 0.00 | 0.00 | 51 | 1017.3 |
| 20260507094536 | 72 | 188 | 2.0 | 7.0 | 0.00 | 0.00 | 0.00 | 53 | 1017.2 |
| 20260507094100 | 71 | 244 | 2.0 | 7.0 | 0.00 | 0.00 | 0.00 | 54 | 1017.0 |
| 20260507093535 | 70 | 173 | 2.0 | 7.0 | 0.00 | 0.00 | 0.00 | 54 | 1017.1 |
| 20260507093041 | 71 | 184 | 4.0 | 8.0 | 0.00 | 0.00 | 0.00 | 52 | 1017.1 |
| 20260507092531 | 70 | 168 | 4.0 | 8.0 | 0.00 | 0.00 | 0.00 | 52 | 1017.3 |
| 20260507092040 | 70 | 220 | 4.0 | 7.0 | 0.00 | 0.00 | 0.00 | 53 | 1017.6 |
| 20260507091548 | 69 | 177 | 4.0 | 7.0 | 0.00 | 0.00 | 0.00 | 54 | 1017.5 |
| 20260507091033 | 70 | 209 | 4.0 | 7.0 | 0.00 | 0.00 | 0.00 | 56 | 1017.6 |
| 20260507090540 | 70 | 145 | 3.0 | 7.0 | 0.00 | 0.00 | 0.00 | 55 | 1017.2 |
| 20260507090029 | 70 | 206 | 3.0 | 7.0 | 0.00 | 0.00 | 0.00 | 55 | 1017.2 |
| 20260507085526 | 70 | 234 | 3.0 | 5.0 | 0.00 | 0.00 | 0.00 | 56 | 1017.1 |
| 20260507085030 | 70 | 225 | 2.0 | 4.0 | 0.00 | 0.00 | 0.00 | 55 | 1017.1 |
| 20260507084547 | 70 | 142 | 2.0 | 6.0 | 0.00 | 0.00 | 0.00 | 54 | 1017.2 |
| 20260507084029 | 69 | 148 | 3.0 | 6.0 | 0.00 | 0.00 | 0.00 | 54 | 1017.1 |
| 20260507083539 | 70 | 196 | 3.0 | 5.0 | 0.00 | 0.00 | 0.00 | 53 | 1017.1 |
| 20260507083040 | 70 | 117 | 2.0 | 5.0 | 0.00 | 0.00 | 0.00 | 55 | 1017.1 |
| 20260507082556 | 68 | 153 | 1.0 | 5.0 | 0.00 | 0.00 | 0.00 | 58 | 1017.2 |
| 20260507082100 | 68 | 194 | 3.0 | 6.0 | 0.00 | 0.00 | 0.00 | 59 | 1017.2 |
| 20260507081533 | 67 | 197 | 3.0 | 7.0 | 0.00 | 0.00 | 0.00 | 59 | 1017.1 |
| 20260507081027 | 67 | 190 | 5.0 | 8.0 | 0.00 | 0.00 | 0.00 | 58 | 1017.2 |
| 20260507080536 | 68 | 202 | 4.0 | 7.0 | 0.00 | 0.00 | 0.00 | 57 | 1017.2 |
| 20260507080039 | 68 | 219 | 4.0 | 7.0 | 0.00 | 0.00 | 0.00 | 57 | 1017.0 |
| 20260507075557 | 68 | 211 | 5.0 | 7.0 | 0.00 | 0.00 | 0.00 | 56 | 1016.8 |
| 20260507075049 | 68 | 214 | 4.0 | 5.0 | 0.00 | 0.00 | 0.00 | 54 | 1016.7 |
| 20260507074544 | 69 | 220 | 3.0 | 5.0 | 0.00 | 0.00 | 0.00 | 54 | 1016.7 |
| 20260507074044 | 68 | 213 | 4.0 | 5.0 | 0.00 | 0.00 | 0.00 | 53 | 1016.6 |
| 20260507073529 | 69 | 207 | 3.0 | 5.0 | 0.00 | 0.00 | 0.00 | 54 | 1016.5 |
| 20260507073033 | 68 | 206 | 2.0 | 6.0 | 0.00 | 0.00 | 0.00 | 58 | 1016.6 |
| 20260507072539 | 68 | 213 | 4.0 | 6.0 | 0.00 | 0.00 | 0.00 | 60 | 1016.7 |
| 20260507072035 | 68 | 196 | 4.0 | 5.0 | 0.00 | 0.00 | 0.00 | 59 | 1016.7 |
| 20260507071530 | 68 | 200 | 3.0 | 5.0 | 0.00 | 0.00 | 0.00 | 61 | 1016.8 |
| 20260507071037 | 68 | 178 | 2.0 | 5.0 | 0.00 | 0.00 | 0.00 | 62 | 1016.8 |
| 20260507070548 | 68 | 160 | 2.0 | 4.0 | 0.00 | 0.00 | 0.00 | 63 | 1016.8 |
| 20260507070034 | 67 | 160 | 2.0 | 4.0 | 0.00 | 0.00 | 0.00 | 62 | 1016.8 |
| 20260507065539 | 67 | 160 | 2.0 | 5.0 | 0.00 | 0.00 | 0.00 | 63 | 1016.8 |
| 20260507065026 | 67 | 146 | 3.0 | 5.0 | 0.00 | 0.00 | 0.00 | 63 | 1016.8 |
| 20260507064544 | 67 | 65 | 4.0 | 5.0 | 0.00 | 0.00 | 0.00 | 63 | 1016.7 |
| 20260507064035 | 66 | 306 | 1.0 | 4.0 | 0.00 | 0.00 | 0.00 | 62 | 1016.8 |
| 20260507063550 | 66 | 313 | 2.0 | 4.0 | 0.00 | 0.00 | 0.00 | 63 | 1016.9 |
| 20260507063031 | 66 | 244 | 3.0 | 6.0 | 0.00 | 0.00 | 0.00 | 63 | 1016.9 |
| 20260507062535 | 67 | 257 | 3.0 | 6.0 | 0.00 | 0.00 | 0.00 | 61 | 1016.9 |
| 20260507062030 | 67 | 283 | 4.0 | 7.0 | 0.00 | 0.00 | 0.00 | 58 | 1016.8 |
| 20260507061538 | 67 | 267 | 5.0 | 7.0 | 0.00 | 0.00 | 0.00 | 53 | 1016.7 |
| 20260507061051 | 68 | 280 | 2.0 | 5.0 | 0.00 | 0.00 | 0.00 | 50 | 1016.5 |
| 20260507060546 | 67 | 331 | 2.0 | 3.0 | 0.00 | 0.00 | 0.00 | 45 | 1016.5 |
| 20260507060049 | 67 | 331 | 1.0 | 3.0 | 0.00 | 0.00 | 0.00 | 46 | 1016.3 |
| 20260507055535 | 67 | 331 | 2.0 | 4.0 | 0.00 | 0.00 | 0.00 | 46 | 1016.3 |
| 20260507055024 | 66 | 331 | 3.0 | 4.0 | 0.00 | 0.00 | 0.00 | 47 | 1016.3 |
| 20260507054534 | 66 | 44 | 0.0 | 2.0 | 0.00 | 0.00 | 0.00 | 51 | 1016.4 |
| 20260507054039 | 65 | 44 | 2.0 | 3.0 | 0.00 | 0.00 | 0.00 | 52 | 1016.4 |
| 20260507053543 | 65 | 44 | 2.0 | 3.0 | 0.00 | 0.00 | 0.00 | 53 | 1016.5 |
| 20260507053039 | 64 | 44 | 1.0 | 3.0 | 0.00 | 0.00 | 0.00 | 54 | 1016.5 |
| 20260507052532 | 64 | 44 | 1.0 | 4.0 | 0.00 | 0.00 | 0.00 | 54 | 1016.5 |
| 20260507052034 | 64 | 44 | 1.0 | 4.0 | 0.00 | 0.00 | 0.00 | 55 | 1016.6 |
| 20260507051545 | 64 | 44 | 2.0 | 2.0 | 0.00 | 0.00 | 0.00 | 55 | 1016.6 |
| 20260507051041 | 63 | 44 | 1.0 | 3.0 | 0.00 | 0.00 | 0.00 | 56 | 1016.7 |
| 20260507050530 | 63 | 44 | 2.0 | 3.0 | 0.00 | 0.00 | 0.00 | 57 | 1016.6 |
| 20260507050030 | 63 | 44 | 1.0 | 3.0 | 0.00 | 0.00 | 0.00 | 59 | 1016.6 |
| 20260507045604 | 62 | 44 | 2.0 | 3.0 | 0.00 | 0.00 | 0.00 | 60 | 1016.6 |
| 20260507045031 | 61 | 325 | 0.0 | 2.0 | 0.00 | 0.00 | 0.00 | 62 | 1016.6 |
| 20260507044538 | 61 | 325 | 1.0 | 2.0 | 0.00 | 0.00 | 0.00 | 62 | 1016.5 |
| 20260507044030 | 61 | 325 | 0.0 | 2.0 | 0.00 | 0.00 | 0.00 | 62 | 1016.3 |
| 20260507043538 | 61 | 325 | 1.0 | 2.0 | 0.00 | 0.00 | 0.00 | 63 | 1016.2 |
| 20260507043040 | 61 | 325 | 0.0 | 2.0 | 0.00 | 0.00 | 0.00 | 63 | 1016.0 |
| 20260507042530 | 60 | 325 | 1.0 | 2.0 | 0.00 | 0.00 | 0.00 | 63 | 1015.8 |
| 20260507042111 | 60 | 325 | 0.0 | 1.0 | 0.00 | 0.00 | 0.00 | 63 | 1015.6 |
| 20260507041547 | 60 | 325 | 0.0 | 2.0 | 0.00 | 0.00 | 0.00 | 64 | 1015.6 |
| 20260507041055 | 60 | 325 | 1.0 | 2.0 | 0.00 | 0.00 | 0.00 | 64 | 1015.5 |
| 20260507040546 | 60 | 323 | 1.0 | 3.0 | 0.00 | 0.00 | 0.00 | 65 | 1015.4 |
| 20260507040039 | 59 | 323 | 1.0 | 4.0 | 0.00 | 0.00 | 0.00 | 65 | 1015.4 |
| 20260507035530 | 59 | 323 | 2.0 | 5.0 | 0.00 | 0.00 | 0.00 | 66 | 1015.3 |
| 20260507035035 | 59 | 331 | 3.0 | 5.0 | 0.00 | 0.00 | 0.00 | 66 | 1015.2 |
| 20260507034539 | 58 | 301 | 2.0 | 5.0 | 0.00 | 0.00 | 0.00 | 66 | 1015.1 |
| 20260507034102 | 59 | 296 | 3.0 | 4.0 | 0.00 | 0.00 | 0.00 | 64 | 1015.1 |
| 20260507033556 | 59 | 268 | 2.0 | 6.0 | 0.00 | 0.00 | 0.00 | 61 | 1015.0 |
| 20260507033042 | 61 | 302 | 4.0 | 6.0 | 0.00 | 0.00 | 0.00 | 55 | 1014.8 |
| 20260507032538 | 62 | 351 | 4.0 | 8.0 | 0.00 | 0.00 | 0.00 | 54 | 1014.8 |
| 20260507032037 | 62 | 22 | 4.0 | 8.0 | 0.00 | 0.00 | 0.00 | 55 | 1014.7 |
| 20260507031546 | 62 | 65 | 5.0 | 9.0 | 0.00 | 0.00 | 0.00 | 56 | 1014.6 |
| 20260507031038 | 61 | 49 | 5.0 | 10.0 | 0.00 | 0.00 | 0.00 | 58 | 1014.6 |
| 20260507030529 | 61 | 9 | 6.0 | 10.0 | 0.00 | 0.00 | 0.00 | 59 | 1014.6 |
| 20260507030039 | 60 | 5 | 6.0 | 10.0 | 0.00 | 0.00 | 0.00 | 63 | 1014.7 |
| 20260507025531 | 60 | 90 | 6.0 | 10.0 | 0.00 | 0.00 | 0.00 | 67 | 1014.8 |
| 20260507025100 | 59 | 66 | 3.0 | 5.0 | 0.00 | 0.00 | 0.00 | 71 | 1014.7 |
| 20260507024553 | 59 | 72 | 3.0 | 4.0 | 0.00 | 0.00 | 0.00 | 74 | 1014.8 |
| 20260507024043 | 59 | 71 | 3.0 | 9.0 | 0.00 | 0.00 | 0.00 | 75 | 1015.0 |
| 20260507023531 | 59 | 92 | 5.0 | 9.0 | 0.00 | 0.00 | 0.00 | 75 | 1015.1 |
| 20260507023044 | 59 | 56 | 4.0 | 9.0 | 0.00 | 0.00 | 0.00 | 75 | 1015.1 |
| 20260507022537 | 59 | 101 | 4.0 | 8.0 | 0.00 | 0.00 | 0.00 | 75 | 1015.2 |
| 20260507022027 | 59 | 102 | 3.0 | 4.0 | 0.00 | 0.00 | 0.00 | 75 | 1015.4 |
| 20260507021539 | 59 | 93 | 0.0 | 2.0 | 0.00 | 0.00 | 0.00 | 75 | 1015.4 |
| 20260507021046 | 59 | 93 | 1.0 | 2.0 | 0.00 | 0.00 | 0.00 | 75 | 1015.2 |
| 20260507020553 | 59 | 93 | 0.0 | 2.0 | 0.00 | 0.00 | 0.00 | 75 | 1015.0 |
| 20260507020106 | 59 | 93 | 1.0 | 7.0 | 0.00 | 0.00 | 0.00 | 74 | 1015.0 |
| 20260507015533 | 59 | 74 | 3.0 | 7.0 | 0.00 | 0.00 | 0.00 | 74 | 1014.9 |
| 20260507015038 | 59 | 80 | 3.0 | 10.0 | 0.00 | 0.00 | 0.00 | 73 | 1014.9 |
| 20260507014557 | 60 | 67 | 5.0 | 10.0 | 0.00 | 0.00 | 0.00 | 72 | 1014.9 |
| 20260507014040 | 60 | 75 | 5.0 | 10.0 | 0.00 | 0.00 | 0.00 | 71 | 1014.9 |
| 20260507013553 | 60 | 63 | 5.0 | 9.0 | 0.00 | 0.00 | 0.00 | 70 | 1015.0 |
| 20260507013058 | 61 | 86 | 4.0 | 7.0 | 0.00 | 0.00 | 0.00 | 69 | 1015.0 |
| 20260507012552 | 61 | 60 | 2.0 | 6.0 | 0.00 | 0.00 | 0.00 | 68 | 1015.0 |
| 20260507012053 | 61 | 55 | 3.0 | 6.0 | 0.00 | 0.00 | 0.00 | 66 | 1014.9 |
| 20260507011547 | 61 | 128 | 3.0 | 4.0 | 0.00 | 0.00 | 0.00 | 65 | 1014.8 |
| 20260507011111 | 62 | 71 | 2.0 | 6.0 | 0.00 | 0.00 | 0.00 | 64 | 1014.7 |
| 20260507010536 | 62 | 57 | 4.0 | 10.0 | 0.00 | 0.00 | 0.00 | 63 | 1014.7 |
| 20260507010106 | 62 | 87 | 5.0 | 10.0 | 0.00 | 0.00 | 0.00 | 61 | 1014.8 |
| 20260507005539 | 63 | 71 | 4.0 | 9.0 | 0.00 | 0.00 | 0.00 | 58 | 1014.7 |
| 20260507005044 | 63 | 22 | 3.0 | 5.0 | 0.00 | 0.00 | 0.00 | 58 | 1015.0 |
| 20260507004534 | 64 | 307 | 2.0 | 7.0 | 0.00 | 0.00 | 0.00 | 56 | 1015.1 |
| 20260507004036 | 64 | 289 | 4.0 | 12.0 | 0.00 | 0.00 | 0.00 | 56 | 1015.2 |
| 20260507003540 | 63 | 316 | 5.0 | 12.0 | 0.00 | 0.00 | 0.00 | 57 | 1015.1 |
| 20260507003030 | 63 | 329 | 5.0 | 10.0 | 0.00 | 0.00 | 0.00 | 57 | 1015.0 |
| 20260507002549 | 63 | 348 | 4.0 | 10.0 | 0.00 | 0.00 | 0.00 | 57 | 1014.9 |
| 20260507002030 | 63 | 339 | 5.0 | 10.0 | 0.00 | 0.00 | 0.00 | 58 | 1015.0 |
| 20260507001602 | 63 | 287 | 5.0 | 13.0 | 0.00 | 0.00 | 0.00 | 58 | 1015.1 |
| 20260507001110 | 62 | 12 | 7.0 | 15.0 | 0.00 | 0.00 | 0.00 | 59 | 1015.2 |
| 20260507000538 | 62 | 355 | 7.0 | 15.0 | 0.00 | 0.00 | 0.00 | 60 | 1015.3 |
| 20260507000030 | 62 | 59 | 5.0 | 11.0 | 0.00 | 0.00 | 0.00 | 60 | 1015.4 |
| 20260506235548 | 62 | 37 | 6.0 | 11.0 | 0.00 | 0.00 | 0.00 | 61 | 1015.4 |
| 20260506235039 | 62 | 360 | 6.0 | 10.0 | 0.00 | 0.00 | 0.00 | 62 | 1015.4 |
| 20260506234553 | 62 | 15 | 5.0 | 9.0 | 0.00 | 0.00 | 0.00 | 62 | 1015.6 |
| 20260506234037 | 62 | 21 | 3.0 | 4.0 | 0.00 | 0.00 | 0.00 | 63 | 1016.0 |
| 20260506233527 | 62 | 70 | 0.0 | 4.0 | 0.00 | 0.00 | 0.00 | 63 | 1016.1 |
| 20260506233035 | 62 | 73 | 2.0 | 4.0 | 0.00 | 0.00 | 0.00 | 64 | 1016.2 |
| 20260506232551 | 62 | 24 | 2.0 | 3.0 | 0.00 | 0.00 | 0.00 | 65 | 1016.3 |
| 20260506232040 | 61 | 113 | 2.0 | 3.0 | 0.00 | 0.00 | 0.00 | 66 | 1016.4 |
| 20260506231553 | 61 | 137 | 1.0 | 3.0 | 0.00 | 0.00 | 0.00 | 65 | 1016.4 |
| 20260506231036 | 62 | 137 | 2.0 | 3.0 | 0.00 | 0.00 | 0.00 | 64 | 1016.4 |
| 20260506230531 | 62 | 137 | 1.0 | 3.0 | 0.00 | 0.00 | 0.00 | 63 | 1016.3 |
| 20260506230035 | 63 | 48 | 2.0 | 3.0 | 0.00 | 0.00 | 0.00 | 62 | 1016.3 |
| 20260506225548 | 63 | 46 | 2.0 | 5.0 | 0.00 | 0.00 | 0.00 | 62 | 1016.3 |
| 20260506225057 | 63 | 55 | 2.0 | 6.0 | 0.00 | 0.00 | 0.00 | 62 | 1016.2 |
| 20260506224611 | 63 | 33 | 3.0 | 6.0 | 0.00 | 0.00 | 0.00 | 63 | 1016.2 |
| 20260506224029 | 62 | 30 | 2.0 | 6.0 | 0.00 | 0.00 | 0.00 | 64 | 1016.3 |
| 20260506223539 | 62 | 69 | 2.0 | 5.0 | 0.00 | 0.00 | 0.00 | 66 | 1016.2 |
| 20260506223046 | 63 | 61 | 2.0 | 7.0 | 0.00 | 0.00 | 0.00 | 66 | 1016.3 |
| 20260506222538 | 63 | 62 | 3.0 | 5.0 | 0.00 | 0.00 | 0.00 | 67 | 1016.4 |
| 20260506222043 | 63 | 68 | 2.0 | 5.0 | 0.00 | 0.00 | 0.00 | 67 | 1016.4 |
| 20260506221536 | 63 | 67 | 3.0 | 5.0 | 0.00 | 0.00 | 0.00 | 68 | 1016.4 |
| 20260506221101 | 63 | 79 | 3.0 | 5.0 | 0.00 | 0.00 | 0.00 | 67 | 1016.4 |
| 20260506220530 | 63 | 75 | 4.0 | 5.0 | 0.00 | 0.00 | 0.00 | 67 | 1016.3 |
| 20260506220032 | 63 | 65 | 3.0 | 5.0 | 0.00 | 0.00 | 0.00 | 67 | 1016.3 |
| 20260506215546 | 63 | 67 | 2.0 | 7.0 | 0.00 | 0.00 | 0.00 | 67 | 1016.2 |
| 20260506215034 | 63 | 62 | 3.0 | 5.0 | 0.00 | 0.00 | 0.00 | 66 | 1016.0 |
| 20260506214539 | 63 | 88 | 3.0 | 7.0 | 0.00 | 0.00 | 0.00 | 65 | 1016.0 |
| 20260506214034 | 63 | 94 | 4.0 | 7.0 | 0.00 | 0.00 | 0.00 | 65 | 1015.8 |
| 20260506213549 | 63 | 77 | 4.0 | 5.0 | 0.00 | 0.00 | 0.00 | 65 | 1015.7 |
| 20260506213036 | 63 | 82 | 2.0 | 4.0 | 0.00 | 0.00 | 0.00 | 65 | 1015.6 |
| 20260506212537 | 63 | 82 | 2.0 | 7.0 | 0.00 | 0.00 | 0.00 | 64 | 1015.5 |
| 20260506212041 | 63 | 84 | 3.0 | 8.0 | 0.00 | 0.00 | 0.00 | 64 | 1015.5 |
| 20260506211534 | 63 | 80 | 4.0 | 8.0 | 0.00 | 0.00 | 0.00 | 64 | 1015.4 |
| 20260506211058 | 63 | 90 | 4.0 | 8.0 | 0.00 | 0.00 | 0.00 | 63 | 1015.4 |
| 20260506210549 | 64 | 101 | 5.0 | 7.0 | 0.00 | 0.00 | 0.00 | 62 | 1015.4 |
| 20260506210112 | 64 | 106 | 2.0 | 3.0 | 0.00 | 0.00 | 0.00 | 58 | 1015.6 |
| 20260506205554 | 64 | 257 | 1.0 | 5.0 | 0.00 | 0.00 | 0.00 | 58 | 1015.5 |
| 20260506205101 | 65 | 257 | 1.0 | 7.0 | 0.00 | 0.00 | 0.00 | 57 | 1015.5 |
| 20260506204552 | 66 | 255 | 3.0 | 7.0 | 0.00 | 0.00 | 0.00 | 56 | 1015.4 |
| 20260506204041 | 66 | 344 | 4.0 | 7.0 | 0.00 | 0.00 | 0.00 | 57 | 1015.3 |
| 20260506203558 | 66 | 349 | 3.0 | 5.0 | 0.00 | 0.00 | 0.00 | 57 | 1015.3 |
| 20260506203037 | 66 | 44 | 2.0 | 4.0 | 0.00 | 0.00 | 0.00 | 57 | 1015.3 |
| 20260506202554 | 66 | 67 | 2.0 | 4.0 | 0.00 | 0.00 | 0.00 | 57 | 1015.3 |
| 20260506202037 | 66 | 69 | 2.0 | 7.0 | 0.00 | 0.00 | 0.00 | 57 | 1015.3 |
| 20260506201549 | 66 | 67 | 4.0 | 7.0 | 0.00 | 0.00 | 0.00 | 57 | 1015.4 |
| 20260506201057 | 66 | 53 | 3.0 | 6.0 | 0.00 | 0.00 | 0.00 | 58 | 1015.6 |
| 20260506200549 | 66 | 36 | 3.0 | 6.0 | 0.00 | 0.00 | 0.00 | 58 | 1015.8 |
| 20260506200047 | 66 | 19 | 3.0 | 6.0 | 0.00 | 0.00 | 0.00 | 58 | 1015.8 |
| 20260506195542 | 66 | 21 | 2.0 | 4.0 | 0.00 | 0.00 | 0.00 | 58 | 1015.9 |
| 20260506195051 | 66 | 48 | 1.0 | 5.0 | 0.00 | 0.00 | 0.00 | 58 | 1015.9 |
| 20260506194534 | 66 | 50 | 3.0 | 7.0 | 0.00 | 0.00 | 0.00 | 58 | 1015.8 |
| 20260506194035 | 66 | 67 | 4.0 | 7.0 | 0.00 | 0.00 | 0.00 | 58 | 1015.9 |
| 20260506193529 | 67 | 63 | 2.0 | 5.0 | 0.00 | 0.00 | 0.00 | 58 | 1015.9 |
| 20260506193041 | 67 | 75 | 1.0 | 3.0 | 0.00 | 0.00 | 0.00 | 58 | 1015.9 |
| 20260506192530 | 67 | 75 | 1.0 | 3.0 | 0.00 | 0.00 | 0.00 | 58 | 1015.9 |
| 20260506192035 | 67 | 75 | 1.0 | 3.0 | 0.00 | 0.00 | 0.00 | 58 | 1016.0 |
| 20260506191546 | 67 | 75 | 2.0 | 3.0 | 0.00 | 0.00 | 0.00 | 58 | 1015.9 |
| 20260506191028 | 67 | 75 | 1.0 | 3.0 | 0.00 | 0.00 | 0.00 | 58 | 1015.9 |
| 20260506190549 | 67 | 75 | 2.0 | 3.0 | 0.00 | 0.00 | 0.00 | 58 | 1015.9 |
| 20260506190053 | 67 | 75 | 1.0 | 4.0 | 0.00 | 0.00 | 0.00 | 58 | 1015.8 |
| 20260506185541 | 67 | 75 | 2.0 | 4.0 | 0.00 | 0.00 | 0.00 | 58 | 1015.7 |
| 20260506185049 | 67 | 71 | 2.0 | 3.0 | 0.00 | 0.00 | 0.00 | 58 | 1015.6 |
| 20260506184653 | 67 | 71 | 1.0 | 3.0 | 0.00 | 0.00 | 0.00 | 58 | 1015.6 |
| 20260506184027 | 67 | 71 | 2.0 | 3.0 | 0.00 | 0.00 | 0.00 | 59 | 1015.5 |
| 20260506183540 | 67 | 71 | 1.0 | 3.0 | 0.00 | 0.00 | 0.00 | 59 | 1015.5 |
| 20260506183027 | 67 | 73 | 2.0 | 5.0 | 0.00 | 0.00 | 0.00 | 60 | 1015.5 |
| 20260506182536 | 67 | 59 | 2.0 | 5.0 | 0.00 | 0.00 | 0.00 | 60 | 1015.5 |
| 20260506182041 | 68 | 95 | 2.0 | 3.0 | 0.00 | 0.00 | 0.00 | 62 | 1015.5 |
| 20260506181542 | 68 | 96 | 2.0 | 3.0 | 0.00 | 0.00 | 0.00 | 61 | 1015.4 |
| 20260506181047 | 68 | 12 | 2.0 | 3.0 | 0.00 | 0.00 | 0.00 | 60 | 1015.4 |
| 20260506180556 | 68 | 11 | 1.0 | 2.0 | 0.00 | 0.00 | 0.00 | 60 | 1015.4 |
| 20260506180040 | 68 | 11 | 2.0 | 3.0 | 0.00 | 0.00 | 0.00 | 60 | 1015.3 |
| 20260506175545 | 68 | 11 | 1.0 | 3.0 | 0.00 | 0.00 | 0.00 | 60 | 1015.2 |
| 20260506175039 | 68 | 5 | 1.0 | 3.0 | 0.00 | 0.00 | 0.00 | 62 | 1015.2 |
| 20260506174527 | 69 | 5 | 2.0 | 4.0 | 0.00 | 0.00 | 0.00 | 60 | 1015.2 |
| 20260506174040 | 69 | 5 | 2.0 | 4.0 | 0.00 | 0.00 | 0.00 | 58 | 1015.2 |
| 20260506173528 | 70 | 338 | 2.0 | 4.0 | 0.00 | 0.00 | 0.00 | 57 | 1015.2 |
| 20260506173034 | 70 | 288 | 2.0 | 5.0 | 0.00 | 0.00 | 0.00 | 56 | 1015.1 |
| 20260506172548 | 70 | 285 | 2.0 | 3.0 | 0.00 | 0.00 | 0.00 | 54 | 1015.0 |